Weather in Avangard

Russia / Samara Oblast     52°37′11″N   51°16′17″E
temp.,
°C
wind,
m/s
gust,
m/s
humid.,
%
clouds,
%
prec.,
mm/h
press.,
hPa
HPBL,
m
7 march, sun
sun701:00−11nne3487100 0.0 101250
04:00−12nne3386100 0.0 101238
07:00−16n228133 0.0 101220
10:00−13wnw228517 0.0 101352
13:00−10wsw35820 0.0 1013214
16:00−10sw489325 0.0 1013322
19:00−11sw4997100 0.1 1013193
22:00−11ssw6129395 0.1 1012306
8 march, mon
mon801:00−8ssw91794100 0.3 1008580
04:00−6ssw111891100 1.1 1005873
07:00−5sw121993100 0.6 1002968
10:00−4sw111792100 1.3 10031121
13:00−2wsw101585100 0.4 10051421
16:00−2wsw6128595 0.6 1006977
19:00−3ssw5997100 0.4 1006388
22:00−3sw71396100 1.8 1006624
9 march, tue
tue901:00−2sw71296100 1.0 1005747
04:00−4wsw51096100 1.8 1005501
07:00−8w5109593 0.1 1007241
10:00−10w369297 0.1 1009234
13:00−8wnw1284100 0.0 1009208
16:00−7nw2390100 0.0 1009253
19:00−10nw3395100 0.0 100971
22:00−11nw3497100 0.1 101181
10 march, wed
wed1001:00−14nw3697100 0.1 101195
04:00−17nw3399100 0.1 101247
07:00−17wnw3598100 0.0 1013119
10:00−15nw4795100 0.1 1014308
13:00−14nw5792100 0.0 1016497
16:00−14nw5792100 0.1 1016655
19:00−18nnw3698100 0.1 1018141
22:00−21nw4999100 0.2 1020206
11 march, thu
thu1101:00−25nw3410097 0.0 102175
04:00−27nw3410091 0.1 102365
07:00−29nw3410065 0.0 102448
10:00−25nw359640 0.0 1026149
13:00−21w45940 0.0 1027234
16:00−20wsw58930 0.0 1026267
19:00−22wsw599733 0.0 1026182
22:00−19w5109765 0.1 1028205